K7JKM Weather Reports


time (UTC)temp
C
wind
direction
speed
KPH
gust
KPH
rain 1hr
cm
rain 24hr
cm
rain mn
cm
humidity
%
barometer
mb
20260903063030 13 109 0.0 1.6 0.18 1.52 1.52 78 1010.7
20260903061534 13 158 0.0 3.2 0.23 1.52 1.52 78 1010.7
20260903060019 13 108 0.0 1.6 0.28 1.52 1.52 78 1010.7
20260903054519 13 128 0.0 1.6 0.23 1.47 1.47 78 1010.8
20260903053045 13 116 0.0 3.2 0.10 1.32 1.32 78 1010.8
20260903051535 13 133 0.0 0.0 0.05 1.30 1.30 77 1010.8
20260903050035 13 141 0.0 1.6 0.00 1.24 1.24 77 1010.8
20260903044530 13 108 0.0 0.0 0.00 1.24 1.24 77 1010.6
20260903043005 12 123 0.0 1.6 0.00 1.24 1.24 74 1010.3
20260903041503 13 120 0.0 3.2 0.00 1.24 1.24 74 1010.3
20260903040003 13 115 0.0 1.6 0.00 1.24 1.24 73 1010.0
20260903034502 13 122 0.0 3.2 0.00 1.24 1.24 73 1009.8
20260903033012 13 155 0.0 1.6 0.00 1.24 1.24 74 1009.6
20260903031512 13 137 0.0 3.2 0.00 1.24 1.24 74 1009.5
20260903030008 13 107 0.0 1.6 0.00 1.24 1.24 74 1009.3
20260903024505 14 103 0.0 1.6 0.00 1.24 1.24 74 1009.2
20260903023005 14 118 0.0 1.6 0.00 1.24 1.24 75 1009.3
20260903021509 14 134 0.0 1.6 0.00 1.24 1.24 75 1009.0
20260903020003 14 149 0.0 3.2 0.00 1.24 1.24 75 1009.0
20260903014516 15 90 0.0 1.6 0.00 1.24 1.24 75 1008.9
20260903013015 15 132 0.0 1.6 0.03 1.24 1.24 75 1008.8
20260903011511 15 223 0.0 1.6 0.03 1.24 1.24 75 1008.7
20260903010008 15 162 0.0 0.0 0.03 1.24 1.24 77 1008.4
20260903004518 15 200 0.0 1.6 0.05 1.24 1.24 77 1008.5
20260903003010 15 106 0.0 3.2 0.03 1.22 1.22 77 1008.4
20260903001523 15 185 0.0 1.6 0.03 1.22 1.22 77 1008.0
20260903000032 15 110 0.0 1.6 0.03 1.22 1.22 79 1007.8
20260902234521 15 214 0.0 1.6 0.20 1.19 1.19 79 1007.8
20260902233018 15 283 0.0 0.0 0.33 1.19 1.19 79 1007.7
20260902231514 15 292 0.0 0.0 0.41 1.19 1.19 78 1007.6
20260902230010 15 77 0.0 1.6 0.48 1.19 1.19 76 1007.5
20260902224509 15 121 0.0 1.6 0.30 0.99 0.99 75 1007.5
20260902223027 15 94 0.0 1.6 0.20 0.86 0.86 73 1007.4
20260902221536 15 112 0.0 1.6 0.18 0.79 0.79 72 1007.3
20260902220038 15 108 0.0 11.3 0.13 0.71 0.71 70 1007.2
20260902214520 15 143 0.0 8.0 0.15 0.69 0.69 69 1007.0
20260902213016 15 117 1.6 8.0 0.13 0.66 0.66 68 1006.9
20260902211513 15 154 6.4 14.5 0.08 0.61 0.61 67 1006.9
20260902210029 15 131 3.2 9.7 0.05 0.58 0.58 67 1006.9
20260902204536 15 109 1.6 16.1 0.00 0.53 0.53 68 1006.7
20260902203033 15 155 1.6 8.0 0.03 0.53 0.53 68 1006.6
20260902201530 15 186 1.6 11.3 0.08 0.53 0.53 68 1006.2
20260902200027 15 156 0.0 11.3 0.10 0.53 0.53 71 1006.1
20260902194532 15 107 0.0 8.0 0.15 0.53 0.53 70 1006.3
20260902193020 14 82 0.0 9.7 0.18 0.51 0.51 71 1006.2
20260902191517 14 91 0.0 4.8 0.25 0.46 0.46 71 1006.5
20260902190038 14 104 0.0 8.0 0.30 0.43 0.43 71 1006.5
20260902184533 14 104 0.0 6.4 0.25 0.38 0.38 69 1006.8
20260902183031 14 124 0.0 4.8 0.23 0.33 0.33 69 1007.0
20260902181506 14 119 0.0 6.4 0.13 0.20 0.20 68 1006.8
20260902180005 15 119 0.0 6.4 0.08 0.13 0.13 67 1007.0
20260902174526 14 143 0.0 3.2 0.10 0.13 0.13 68 1007.2
20260902173025 14 140 0.0 4.8 0.10 0.10 0.10 68 1007.3
20260902171519 15 77 0.0 8.0 0.08 0.08 0.08 68 1007.4
20260902170014 15 285 0.0 1.6 0.05 0.05 0.05 67 1007.4
20260902164513 16 159 0.0 1.6 0.03 0.03 0.03 67 1007.2
20260902163010 16 159 0.0 0.0 0.00 0.00 0.00 66 1007.1
20260902161511 16 120 0.0 0.0 0.00 0.00 0.00 66 1006.8
20260902160034 16 120 0.0 0.0 0.00 0.00 0.00 65 1006.9
20260902154530 16 119 0.0 0.0 0.00 0.00 0.00 64 1007.0
20260902153035 16 119 0.0 1.6 0.00 0.00 0.00 64 1007.2
20260902151520 16 119 0.0 1.6 0.00 0.00 0.00 63 1007.3
20260902150017 15 123 0.0 0.0 0.00 0.00 0.00 64 1007.4
20260902144526 15 122 0.0 0.0 0.00 0.00 0.00 65 1007.6
20260902143012 15 123 0.0 0.0 0.00 0.00 0.00 64 1007.7
20260902141530 15 123 0.0 0.0 0.00 0.00 0.00 64 1007.7
20260902140032 15 123 0.0 0.0 0.00 0.00 0.00 64 1007.8
20260902134533 15 123 0.0 1.6 0.00 0.00 0.00 63 1008.0
20260902133028 15 129 0.0 1.6 0.00 0.00 0.00 63 1008.1
20260902131522 15 129 0.0 1.6 0.00 0.00 0.00 63 1008.3
20260902130019 15 102 0.0 1.6 0.00 0.00 0.00 63 1008.6
20260902124521 15 125 0.0 1.6 0.00 0.00 0.00 63 1008.8
20260902123034 15 129 0.0 0.0 0.00 0.00 0.00 63 1008.9
20260902121530 15 129 0.0 3.2 0.00 0.00 0.00 63 1009.2
20260902120005 15 116 0.0 1.6 0.00 0.00 0.00 63 1009.3
20260902114504 15 120 0.0 0.0 0.00 0.00 0.00 64 1009.7
20260902113004 15 148 0.0 1.6 0.00 0.00 0.00 64 1010.1
20260902111522 15 123 0.0 3.2 0.00 0.00 0.00 63 1010.1
20260902110019 15 125 0.0 0.0 0.00 0.00 0.00 64 1010.3
20260902104530 15 110 0.0 3.2 0.00 0.00 0.00 64 1010.6
20260902103017 15 100 0.0 1.6 0.00 0.00 0.00 64 1010.7
20260902101525 15 165 0.0 1.6 0.00 0.00 0.00 64 1010.8
20260902100010 15 125 0.0 4.8 0.00 0.00 0.00 64 1010.8
20260902094503 15 127 0.0 0.0 0.00 0.00 0.00 63 1011.0
20260902093035 15 127 0.0 3.2 0.00 0.00 0.00 63 1011.0
20260902091526 15 118 0.0 0.0 0.00 0.00 0.00 63 1011.2
20260902090024 15 135 0.0 1.6 0.00 0.00 0.00 63 1011.4
20260902084520 15 106 0.0 3.2 0.00 0.00 0.00 64 1011.4
20260902083015 14 114 0.0 0.0 0.00 0.00 0.00 65 1011.6
20260902081513 14 114 0.0 0.0 0.00 0.00 0.00 67 1011.8
20260902080010 14 114 0.0 0.0 0.00 0.00 0.00 66 1011.8
20260902074535 15 114 0.0 0.0 0.00 0.00 0.00 66 1011.8
20260902073029 15 114 0.0 1.6 0.00 0.00 0.00 66 1011.8
20260902071529 15 112 0.0 1.6 0.00 0.00 0.00 66 1011.9
20260902070023 15 128 0.0 0.0 0.00 0.00 0.00 65 1012.0
20260902064522 16 128 0.0 0.0 0.00 0.00 0.00 64 1012.1